Voltar ao catálogo

STARLINK-6100

AtivoComunicaçõesVLEO
NORAD 57125·PAYLOAD·🇺🇸 United States

Lançado Jun 23, 2023 de Cape Canaveral Space Force Station

Loading…

Próximas Passagens (próximas 24 horas)

TLE

AtualizadoSource: CelesTrak SupGP

Época: Sep 14, 2026, 21:24 UTC

1 57125C 23090AA  26257.89215278  .00014197  00000+0  51417-3 0  2577
2 57125  43.0025 274.7032 0001947 273.1294 347.5399 15.27572237    12

Acompanhe STARLINK-6100 em tempo real com AllMySat

Download on the App Store